Weather History for Crestview, FL

Change the Weather History Date:

Wednesday, November 7, 2012

  Actual Average Record
Temperature  
Mean Temperature 54 °F -  
Max Temperature 64 °F 71 °F 82 °F (1975)
Min Temperature 44 °F 43 °F 28 °F (2010)
Degree Days  
Heating Degree Days 11    
Growing Degree Days 4 (Base 50)    
Moisture  
Dew Point 42 °F    
Average Humidity 66    
Maximum Humidity 93    
Minimum Humidity 41    
Precipitation  
Precipitation 0.00 in - - ()
Sea Level Pressure  
Sea Level Pressure 30.03 in    
Wind  
Wind Speed 6 mph (NW)    
Max Wind Speed 16 mph    
Max Gust Speed 23 mph    
Visibility 10 miles    
Events      
Averages and records for this station are not official NWS values.
T = Trace of Precipitation, MM = Missing Value Source: NWS Daily Summary

Daily Weather History Graph

Daily Weather History Graph

Search for Another Location

Airport:

Trip Planner

Search our weather history database for the weather conditions in past years. The results will help you decide how hot, cold, wet, or windy it might be!

Date:

Astronomy

Nov. 07, 2012 Rise Set
Actual Time 6:06 AM CST 4:52 PM CST
Civil Twilight 5:41 AM CST 5:18 PM CST
Nautical Twilight 5:12 AM CST 5:46 PM CST
Astronomical Twilight 4:43 AM CST 6:15 PM CST
Moon No Moon Rise 12:36 PM CST (11/7)
Length of Visible Light 11h 37m
Length of Day
10h 46m
Last Quarter, 43% of the Moon is Illuminated
Nov 7
Last Quarter
Nov 13
New
Nov 20
First Quarter
Nov 28
Full
Dec 6
Last Quarter

Hourly Weather History & Observations

Time (CST) Temp. Windchill Dew Point Humidity Pressure Visibility Wind Dir Wind Speed Gust Speed Precip Events Conditions
12:53 AM 48.9 °F - 45.0 °F 86% 30.01 in 10.0 mi WNW 4.6 mph - N/A   Overcast
1:53 AM 48.0 °F - 45.0 °F 89% 30.01 in 10.0 mi West 5.8 mph - N/A   Mostly Cloudy
2:53 AM 48.0 °F - 44.1 °F 86% 30.01 in 10.0 mi West 4.6 mph - N/A   Partly Cloudy
3:53 AM 46.9 °F - 44.1 °F 90% 30.01 in 10.0 mi WNW 3.5 mph - N/A   Clear
4:53 AM 46.0 °F 44.8 °F 44.1 °F 93% 30.01 in 9.0 mi West 3.5 mph - N/A   Clear
6:53 AM 44.1 °F - 41.0 °F 89% 30.03 in 5.0 mi Calm Calm - N/A   Clear
7:53 AM 51.1 °F - 45.0 °F 80% 30.05 in 10.0 mi NW 9.2 mph - N/A   Clear
8:53 AM 55.9 °F - 44.1 °F 64% 30.06 in 10.0 mi WNW 8.1 mph - N/A   Clear
9:53 AM 60.1 °F - 44.1 °F 55% 30.05 in 10.0 mi WNW 12.7 mph - N/A   Clear
10:53 AM 62.1 °F - 43.0 °F 50% 30.02 in 10.0 mi NNW 12.7 mph - N/A   Scattered Clouds
11:53 AM 63.0 °F - 42.1 °F 46% 29.99 in 8.0 mi WNW 15.0 mph 23.0 mph N/A   Scattered Clouds
12:53 PM 64.0 °F - 42.1 °F 45% 29.96 in 8.0 mi WNW 11.5 mph 18.4 mph N/A   Scattered Clouds
1:53 PM 64.9 °F - 41.0 °F 42% 29.94 in 10.0 mi WNW 16.1 mph 20.7 mph N/A   Scattered Clouds
2:53 PM 64.0 °F - 39.9 °F 41% 29.95 in 10.0 mi NW 12.7 mph 20.7 mph N/A   Mostly Cloudy
3:53 PM 63.0 °F - 39.0 °F 41% 29.97 in 10.0 mi NNW 8.1 mph - N/A   Clear
5:53 PM 55.0 °F - 43.0 °F 64% 30.01 in 10.0 mi Calm Calm - N/A   Mostly Cloudy
6:53 PM 55.0 °F - 46.0 °F 72% 30.04 in 10.0 mi Calm Calm - N/A   Overcast
7:53 PM 55.9 °F - 39.9 °F 55% 30.07 in 10.0 mi NNW 8.1 mph - N/A   Overcast
8:53 PM 53.1 °F - 39.9 °F 61% 30.10 in 10.0 mi North 4.6 mph - N/A   Clear
9:53 PM 52.0 °F - 37.0 °F 57% 30.12 in 10.0 mi NNW 4.6 mph - N/A   Clear
10:53 PM 46.9 °F - 37.9 °F 71% 30.12 in 9.0 mi NNW 3.5 mph - N/A   Clear
11:53 PM 46.9 °F - 37.0 °F 68% 30.12 in 10.0 mi NNW 4.6 mph - N/A   Clear